Regional Weather Roundup
Issued by NWS

Home | Current Version | Previous Version | Text Only | Print | Product List | Glossary Off
Versions: 1 2 3 4 5 6 7 8 9 10 11 12 13 14 15 16 17 18 19 20 21 22 23 24 25 26 27 28 29 30 31 32 33 34 35 36 37 38 39 40 41 42 43 44 45 46 47 48 49 50

000
ASUS43 KOAX 301802
RWRNE

WEATHER ROUNDUP FOR NEBRASKA
NATIONAL WEATHER SERVICE OMAHA NE
1200 PM CST FRI JAN 30 2015

NOTES: SATELLITE DATA IS BEING USED TO AUGMENT CLOUD COVER ABOVE
       12000 FEET.
       "FAIR" INDICATES FEW OR NO CLOUDS BELOW 12,000 FEET WITH NO
       SIGNIFICANT WEATHER AND/OR OBSTRUCTIONS TO VISIBILITY.

  * THESE STATIONS DO NOT REPORT WEATHER SUCH AS RAIN...SNOW OR FOG.

NEZ001>004-019>022-054>056-301900-
NEBRASKA PANHANDLE

CITY           SKY/WX    TMP DP  RH WIND       PRES   REMARKS
SCOTTSBLUFF    PTSUNNY   38  26  62 W6        30.18F WCI  33
6HR MIN TEMP:  27; 6HR MAX TEMP:  38;

ALLIANCE       PTSUNNY   43  24  47 SW6       30.17F
6HR MIN TEMP:  24; 6HR MAX TEMP:  43;

CHADRON        MOSUNNY   44  24  45 W3        30.18F
6HR MIN TEMP:  28; 6HR MAX TEMP:  44;

SIDNEY         PTSUNNY   41  26  55 S8        30.18F
6HR MIN TEMP:  26; 6HR MAX TEMP:  42;

$$

NEZ057>060-069>072-079>082-301900-
SOUTHWEST NEBRASKA

CITY           SKY/WX    TMP DP  RH WIND       PRES   REMARKS
NORTH PLATTE   CLOUDY    42  25  50 S17       30.25F
6HR MIN TEMP:  19; 6HR MAX TEMP:  42;

IMPERIAL       PTSUNNY   45  27  49 S14       30.24F
6HR MIN TEMP:  25; 6HR MAX TEMP:  45;

MCCOOK         CLOUDY    44  26  49 S14       30.30F
6HR MIN TEMP:  20; 6HR MAX TEMP:  44;

$$

NEZ005>010-023>029-035>040-094-301900-
NORTH CENTRAL NEBRASKA

CITY           SKY/WX    TMP DP  RH WIND       PRES   REMARKS
VALENTINE      PTSUNNY   45  24  43 S21       30.20F
6HR MIN TEMP:  20; 6HR MAX TEMP:  45;

BROKEN BOW     PTSUNNY   40  27  59 S14       30.31F WCI  32
6HR MIN TEMP:  22; 6HR MAX TEMP:  40;

ORD            PTSUNNY   35  26  69 S12       30.34F WCI  27
6HR MIN TEMP:  20; 6HR MAX TEMP:  35;

$$

NEZ041-046>049-061>064-073>077-083>087-301900-
SOUTH CENTRAL NEBRASKA

CITY           SKY/WX    TMP DP  RH WIND       PRES   REMARKS
GRAND ISLAND   PTSUNNY   37  27  67 S13       30.41F WCI  29
HASTINGS       PTSUNNY   36  25  64 S10       30.39F WCI  28
6HR MIN TEMP:  20; 6HR MAX TEMP:  37;

KEARNEY *      PTSUNNY   39  27  60 S14       30.36F WCI  31
$$

NEZ011>018-030>034-042>045-301900-
NORTHEAST NEBRASKA

CITY           SKY/WX    TMP DP  RH WIND       PRES   REMARKS
NORFOLK        SUNNY     36  27  69 S16       30.39F WCI  26
6HR MIN TEMP:  14; 6HR MAX TEMP:  36;

COLUMBUS *     SUNNY     37  25  60 S10       30.43F WCI  30
TEKAMAH        MOSUNNY   32  23  69 S14       30.48F WCI  22
6HR MIN TEMP:  14; 6HR MAX TEMP:  33;

$$

NEZ050>053-065>068-078-088>093-301900-
SOUTHEAST NEBRASKA

CITY           SKY/WX    TMP DP  RH WIND       PRES   REMARKS
LINCOLN        MOSUNNY   34  26  72 S10       30.49F WCI  26
6HR MIN TEMP:  11; 6HR MAX TEMP:  34;

OMAHA EPPLEY   PTSUNNY   29  19  66 S8        30.49F WCI  21
6HR MIN TEMP:  18; 6HR MAX TEMP:  30;

FALLS CITY     MOSUNNY   31  22  69 S8        30.52F WCI  23
6HR MIN TEMP:  12; 6HR MAX TEMP:  31;

$$

NEZ044-045-051>053-067-301900-
OMAHA AREA

CITY           SKY/WX    TMP DP  RH WIND       PRES   REMARKS
OMAHA EPPLEY   PTSUNNY   29  19  66 S8        30.49F WCI  21
6HR MIN TEMP:  18; 6HR MAX TEMP:  30;

OFFUTT AFB     SUNNY     31  20  63 S8        30.49F WCI  23
$$


USA.gov is the U.S. government's official web portal to all federal, state and local government web resources and services.